QPF
0.02 0.03 0.05 0.06 0.05 0.04 0.04 0.05 0.05 0.07 0.10 0.10 0.10 0.11 0.11 0.11 0.12 0.15 0.17 0.16 0.14 0.12 0.10 0.11 0.10 0.09 0.07 0.07 0.08 0.09 0.08 0.06 0.06 0.08 0.07 0.05 0.04 0.04 0.05 0.06 0.05 0.03 0.02
0.02 0.04 0.06 0.09 0.05 0.05 0.06 0.06 0.06 0.06 0.07 0.07 0.08 0.09 0.09 0.09 0.07 0.07 0.09 0.12 0.13 0.12 0.10 0.09 0.08 0.08 0.08 0.08 0.07 0.07 0.07 0.07 0.10 0.10 0.10 0.09 0.07 0.06 0.03 0.03 0.02 0.03 0.03
0.04 0.03 0.04 0.06 0.06 0.06 0.06 0.06 0.07 0.07 0.07 0.08 0.08 0.08 0.08 0.08 0.07 0.06 0.07 0.08 0.08 0.08 0.07 0.06 0.06 0.06 0.06 0.08 0.09 0.10 0.10 0.10 0.12 0.13 0.12 0.10 0.08 0.07 0.04 0.03 0.03 0.03 0.03
0.03 0.02 0.02 0.03 0.04 0.05 0.07 0.08 0.09 0.09 0.09 0.10 0.10 0.08 0.08 0.08 0.08 0.07 0.07 0.06 0.06 0.06 0.06 0.06 0.04 0.05 0.05 0.07 0.08 0.11 0.13 0.13 0.13 0.12 0.11 0.09 0.09 0.09 0.07 0.05 0.04 0.05 0.06
0.04 0.02 0.02 0.02 0.04 0.04 0.06 0.08 0.10 0.09 0.08 0.08 0.07 0.08 0.08 0.08 0.09 0.09 0.08 0.07 0.06 0.06 0.05 0.05 0.04 0.04 0.04 0.04 0.05 0.06 0.09 0.11 0.11 0.11 0.10 0.10 0.09 0.09 0.09 0.07 0.06 0.06 0.06
0.05 0.04 0.03 0.04 0.07 0.07 0.07 0.08 0.08 0.09 0.08 0.07 0.06 0.06 0.07 0.08 0.09 0.09 0.08 0.07 0.06 0.06 0.04 0.04 0.05 0.05 0.04 0.04 0.05 0.05 0.06 0.06 0.07 0.09 0.10 0.09 0.08 0.07 0.08 0.07 0.07 0.07 0.06
0.09 0.07 0.06 0.07 0.12 0.11 0.10 0.10 0.09 0.07 0.04 0.06 0.07 0.06 0.08 0.09 0.09 0.08 0.07 0.06 0.05 0.05 0.04 0.05 0.05 0.05 0.05 0.05 0.05 0.05 0.05 0.05 0.06 0.06 0.06 0.06 0.06 0.07 0.07 0.07 0.06 0.05 0.05
0.08 0.07 0.07 0.08 0.10 0.13 0.13 0.12 0.10 0.06 0.04 0.06 0.08 0.07 0.07 0.06 0.07 0.09 0.07 0.06 0.06 0.05 0.05 0.04 0.05 0.05 0.05 0.05 0.05 0.04 0.04 0.05 0.05 0.05 0.06 0.05 0.05 0.05 0.05 0.06 0.07 0.06 0.06
0.08 0.08 0.07 0.07 0.07 0.08 0.13 0.12 0.08 0.06 0.06 0.07 0.07 0.07 0.07 0.07 0.07 0.08 0.08 0.07 0.07 0.06 0.07 0.06 0.05 0.04 0.04 0.05 0.05 0.04 0.04 0.05 0.05 0.05 0.06 0.06 0.06 0.07 0.06 0.07 0.08 0.08 0.07
0.06 0.06 0.05 0.05 0.07 0.07 0.08 0.07 0.06 0.06 0.07 0.07 0.07 0.06 0.08 0.07 0.08 0.07 0.06 0.05 0.05 0.06 0.06 0.05 0.04 0.03 0.03 0.03 0.04 0.04 0.04 0.05 0.05 0.05 0.07 0.07 0.08 0.08 0.08 0.08 0.08 0.09 0.09
0.10 0.07 0.04 0.03 0.07 0.08 0.06 0.05 0.05 0.07 0.07 0.07 0.07 0.07 0.07 0.07 0.07 0.06 0.05 0.05 0.05 0.06 0.04 0.04 0.04 0.04 0.04 0.03 0.04 0.04 0.05 0.06 0.06 0.05 0.06 0.05 0.06 0.07 0.07 0.07 0.06 0.06 0.07
0.11 0.06 0.04 0.03 0.05 0.08 0.07 0.05 0.06 0.07 0.06 0.07 0.07 0.07 0.08 0.08 0.07 0.06 0.05 0.05 0.05 0.05 0.04 0.04 0.04 0.03 0.03 0.03 0.04 0.04 0.05 0.05 0.05 0.05 0.05 0.05 0.05 0.06 0.07 0.07 0.06 0.07 0.08
0.08 0.06 0.05 0.05 0.06 0.09 0.08 0.06 0.06 0.06 0.06 0.07 0.07 0.08 0.09 0.08 0.06 0.05 0.05 0.05 0.05 0.04 0.04 0.04 0.03 0.03 0.03 0.03 0.03 0.03 0.04 0.04 0.04 0.05 0.05 0.05 0.07 0.07 0.08 0.08 0.07 0.07 0.07
0.08 0.07 0.06 0.06 0.08 0.09 0.07 0.06 0.06 0.07 0.07 0.07 0.07 0.07 0.07 0.06 0.05 0.04 0.05 0.05 0.04 0.04 0.04 0.03 0.03 0.03 0.03 0.03 0.03 0.03 0.04 0.04 0.04 0.05 0.06 0.07 0.09 0.09 0.09 0.08 0.08 0.08 0.07
0.05 0.05 0.06 0.05 0.07 0.08 0.07 0.05 0.04 0.06 0.09 0.08 0.07 0.05 0.05 0.04 0.04 0.05 0.06 0.05 0.05 0.04 0.03 0.03 0.02 0.02 0.03 0.02 0.03 0.05 0.06 0.07 0.07 0.08 0.07 0.07 0.08 0.08 0.08 0.07 0.07 0.07 0.07
0.03 0.03 0.05 0.05 0.06 0.07 0.06 0.04 0.05 0.05 0.05 0.06 0.05 0.03 0.04 0.04 0.06 0.07 0.07 0.06 0.06 0.05 0.03 0.03 0.04 0.04 0.03 0.03 0.03 0.04 0.04 0.05 0.05 0.05 0.06 0.06 0.06 0.05 0.05 0.05 0.05 0.05 0.05
0.02 0.02 0.03 0.04 0.05 0.07 0.06 0.05 0.06 0.06 0.04 0.03 0.03 0.03 0.04 0.04 0.06 0.06 0.07 0.08 0.08 0.06 0.04 0.03 0.04 0.04 0.05 0.05 0.04 0.04 0.04 0.04 0.05 0.07 0.08 0.06 0.04 0.03 0.04 0.05 0.04 0.02 0.02
0.02 0.02 0.03 0.04 0.04 0.07 0.09 0.08 0.06 0.05 0.05 0.04 0.03 0.03 0.03 0.04 0.05 0.05 0.08 0.10 0.09 0.06 0.05 0.04 0.04 0.05 0.05 0.04 0.04 0.04 0.04 0.04 0.06 0.07 0.07 0.07 0.05 0.04 0.03 0.04 0.03 0.03 0.02
0.02 0.02 0.03 0.04 0.03 0.06 0.09 0.08 0.05 0.04 0.04 0.03 0.04 0.03 0.03 0.03 0.04 0.05 0.06 0.09 0.08 0.06 0.06 0.05 0.05 0.06 0.04 0.04 0.04 0.04 0.04 0.05 0.06 0.05 0.04 0.04 0.03 0.02 0.02 0.03 0.03 0.03 0.03
0.02 0.02 0.02 0.03 0.04 0.05 0.06 0.08 0.07 0.05 0.03 0.03 0.03 0.03 0.02 0.02 0.02 0.04 0.04 0.05 0.05 0.04 0.04 0.06 0.07 0.07 0.05 0.05 0.04 0.03 0.04 0.04 0.03 0.03 0.02 0.02 0.02 0.02 0.02 0.03 0.03 0.02 0.03
0.02 0.02 0.02 0.03 0.04 0.05 0.05 0.07 0.08 0.07 0.05 0.04 0.03 0.02 0.02 0.01 0.02 0.03 0.04 0.04 0.04 0.04 0.05 0.05 0.05 0.05 0.05 0.04 0.04 0.04 0.02 0.02 0.02 0.02 0.01 0.01 0.01 0.01 0.01 0.02 0.03 0.02 0.02
0.01 0.02 0.03 0.03 0.03 0.04 0.05 0.06 0.06 0.06 0.06 0.05 0.04 0.02 0.02 0.01 0.02 0.02 0.03 0.04 0.05 0.05 0.04 0.04 0.03 0.03 0.03 0.02 0.02 0.02 0.01 0.01 0.02 0.02 0.01 0.01 0.02 0.01 0.01 0.01 0.01 0.01 0.02
0.02 0.03 0.04 0.03 0.03 0.04 0.05 0.05 0.05 0.05 0.06 0.05 0.06 0.04 0.02 0.01 0.01 0.01 0.02 0.04 0.05 0.03 0.02 0.02 0.02 0.02 0.01 0.02 0.01 0.01 0.01 0.01 0.01 0.01 0.02 0.02 0.01 0.01 0.01 0.01 0.02 0.02 0.02
0.02 0.03 0.05 0.03 0.03 0.03 0.03 0.04 0.03 0.02 0.03 0.05 0.05 0.05 0.03 0.01 0.01 0.01 0.01 0.02 0.02 0.02 0.02 0.02 0.02 0.02 0.01 0.01 0.01 0.01 0.01 0.01 0.01 0.01 0.01 0.01 0.02 0.02 0.02 0.02 0.03 0.03 0.03
0.02 0.02 0.05 0.04 0.02 0.02 0.03 0.02 0.02 0.03 0.04 0.05 0.06 0.05 0.03 0.02 0.01 0.01 0.01 0.01 0.01 0.02 0.02 0.02 0.02 0.01 0.01 0.00 0.00 0.00 0.00 0.01 0.01 0.01 0.02 0.02 0.03 0.02 0.02 0.03 0.03 0.04 0.04
0.02 0.02 0.04 0.04 0.03 0.02 0.02 0.02 0.02 0.02 0.04 0.03 0.03 0.03 0.02 0.02 0.02 0.01 0.01 0.01 0.01 0.01 0.01 0.01 0.01 0.01 0.00 0.00 0.00 0.00 0.00 0.00 0.01 0.01 0.01 0.02 0.02 0.02 0.02 0.03 0.03 0.04 0.04
MSLP
1009.72 1009.94 1010.07 1010.11 1010.08 1010.03 1010.04 1010.17 1010.47 1010.95 1011.58 1012.30 1013.01 1013.63 1014.10 1014.39 1014.51 1014.50 1014.43 1014.37 1014.37 1014.47 1014.66 1014.91 1015.19 1015.43 1015.61 1015.70 1015.71 1015.65 1015.58 1015.51 1015.47 1015.47 1015.51 1015.54 1015.55 1015.50 1015.38 1015.19 1014.96 1014.71 1014.49
1010.51 1010.72 1010.84 1010.86 1010.79 1010.70 1010.66 1010.74 1011.01 1011.46 1012.08 1012.79 1013.50 1014.13 1014.61 1014.90 1015.01 1014.99 1014.89 1014.79 1014.75 1014.80 1014.94 1015.15 1015.39 1015.60 1015.76 1015.83 1015.83 1015.78 1015.70 1015.65 1015.63 1015.65 1015.70 1015.74 1015.75 1015.69 1015.55 1015.33 1015.04 1014.73 1014.42
1011.58 1011.74 1011.81 1011.77 1011.63 1011.46 1011.34 1011.35 1011.55 1011.94 1012.51 1013.18 1013.87 1014.49 1014.97 1015.27 1015.39 1015.37 1015.28 1015.18 1015.13 1015.17 1015.29 1015.48 1015.69 1015.88 1016.02 1016.08 1016.07 1016.02 1015.95 1015.90 1015.90 1015.94 1016.00 1016.06 1016.08 1016.02 1015.85 1015.60 1015.26 1014.87 1014.49
1012.74 1012.84 1012.84 1012.71 1012.49 1012.24 1012.04 1011.96 1012.07 1012.39 1012.88 1013.50 1014.14 1014.74 1015.21 1015.52 1015.67 1015.68 1015.63 1015.56 1015.53 1015.58 1015.70 1015.89 1016.09 1016.27 1016.39 1016.45 1016.44 1016.38 1016.32 1016.28 1016.29 1016.34 1016.41 1016.48 1016.50 1016.44 1016.26 1015.97 1015.59 1015.14 1014.67
1013.85 1013.87 1013.79 1013.59 1013.30 1012.98 1012.71 1012.56 1012.59 1012.83 1013.25 1013.80 1014.39 1014.95 1015.41 1015.72 1015.89 1015.95 1015.94 1015.92 1015.93 1016.01 1016.15 1016.34 1016.54 1016.72 1016.84 1016.88 1016.87 1016.82 1016.76 1016.72 1016.73 1016.78 1016.86 1016.93 1016.95 1016.88 1016.69 1016.39 1015.97 1015.47 1014.92
1014.78 1014.73 1014.58 1014.33 1014.00 1013.64 1013.34 1013.15 1013.13 1013.30 1013.65 1014.13 1014.66 1015.17 1015.60 1015.92 1016.11 1016.20 1016.23 1016.25 1016.31 1016.41 1016.57 1016.77 1016.97 1017.14 1017.25 1017.29 1017.27 1017.22 1017.15 1017.12 1017.12 1017.17 1017.24 1017.30 1017.32 1017.24 1017.05 1016.74 1016.30 1015.76 1015.17
1015.49 1015.37 1015.18 1014.91 1014.58 1014.23 1013.93 1013.73 1013.70 1013.83 1014.12 1014.53 1015.00 1015.46 1015.85 1016.15 1016.34 1016.45 1016.51 1016.56 1016.63 1016.75 1016.91 1017.10 1017.29 1017.44 1017.53 1017.56 1017.54 1017.47 1017.41 1017.36 1017.35 1017.39 1017.45 1017.50 1017.51 1017.43 1017.25 1016.93 1016.50 1015.96 1015.34
1015.98 1015.82 1015.62 1015.36 1015.06 1014.76 1014.50 1014.33 1014.30 1014.41 1014.66 1015.01 1015.41 1015.81 1016.16 1016.42 1016.60 1016.70 1016.76 1016.81 1016.88 1016.99 1017.13 1017.29 1017.44 1017.56 1017.63 1017.64 1017.60 1017.53 1017.45 1017.39 1017.37 1017.39 1017.43 1017.46 1017.46 1017.39 1017.21 1016.92 1016.51 1015.99 1015.39
1016.33 1016.15 1015.95 1015.73 1015.48 1015.25 1015.05 1014.93 1014.92 1015.03 1015.25 1015.55 1015.89 1016.22 1016.51 1016.73 1016.87 1016.94 1016.98 1017.01 1017.05 1017.11 1017.21 1017.32 1017.42 1017.49 1017.53 1017.51 1017.45 1017.37 1017.28 1017.21 1017.17 1017.16 1017.18 1017.20 1017.19 1017.11 1016.95 1016.69 1016.31 1015.84 1015.28
1016.59 1016.40 1016.22 1016.05 1015.88 1015.71 1015.59 1015.52 1015.54 1015.65 1015.84 1016.09 1016.36 1016.63 1016.86 1017.02 1017.12 1017.16 1017.16 1017.15 1017.14 1017.15 1017.18 1017.23 1017.27 1017.30 1017.29 1017.25 1017.17 1017.07 1016.97 1016.88 1016.82 1016.79 1016.78 1016.77 1016.74 1016.66 1016.51 1016.28 1015.96 1015.54 1015.05
1016.80 1016.62 1016.48 1016.36 1016.25 1016.16 1016.09 1016.07 1016.11 1016.21 1016.37 1016.57 1016.79 1017.00 1017.17 1017.28 1017.33 1017.33 1017.30 1017.24 1017.18 1017.14 1017.12 1017.10 1017.09 1017.07 1017.02 1016.95 1016.86 1016.75 1016.63 1016.53 1016.44 1016.37 1016.32 1016.27 1016.22 1016.12 1015.98 1015.78 1015.50 1015.15 1014.73
1016.99 1016.83 1016.72 1016.65 1016.59 1016.55 1016.53 1016.53 1016.58 1016.67 1016.80 1016.96 1017.12 1017.28 1017.40 1017.47 1017.49 1017.46 1017.39 1017.31 1017.22 1017.13 1017.06 1017.00 1016.95 1016.89 1016.82 1016.73 1016.62 1016.50 1016.37 1016.24 1016.12 1016.02 1015.92 1015.83 1015.73 1015.61 1015.46 1015.27 1015.03 1014.74 1014.39
1017.13 1016.99 1016.92 1016.89 1016.87 1016.86 1016.87 1016.89 1016.93 1017.00 1017.09 1017.21 1017.33 1017.44 1017.52 1017.57 1017.57 1017.53 1017.45 1017.35 1017.25 1017.15 1017.05 1016.97 1016.89 1016.81 1016.73 1016.63 1016.52 1016.38 1016.24 1016.09 1015.93 1015.78 1015.63 1015.48 1015.33 1015.17 1015.01 1014.82 1014.61 1014.36 1014.08
1017.17 1017.07 1017.03 1017.03 1017.04 1017.06 1017.08 1017.10 1017.13 1017.18 1017.24 1017.32 1017.40 1017.48 1017.55 1017.58 1017.57 1017.54 1017.47 1017.38 1017.28 1017.17 1017.08 1016.99 1016.91 1016.83 1016.74 1016.64 1016.52 1016.38 1016.22 1016.04 1015.85 1015.65 1015.44 1015.24 1015.04 1014.84 1014.65 1014.46 1014.26 1014.05 1013.82
1017.09 1017.03 1017.02 1017.05 1017.09 1017.13 1017.16 1017.18 1017.20 1017.22 1017.26 1017.31 1017.37 1017.43 1017.48 1017.51 1017.51 1017.49 1017.43 1017.36 1017.28 1017.19 1017.10 1017.02 1016.94 1016.86 1016.78 1016.68 1016.56 1016.41 1016.23 1016.03 1015.81 1015.56 1015.31 1015.06 1014.82 1014.58 1014.37 1014.17 1013.98 1013.79 1013.61
1016.88 1016.85 1016.88 1016.93 1016.99 1017.05 1017.09 1017.11 1017.13 1017.14 1017.17 1017.20 1017.25 1017.30 1017.34 1017.37 1017.39 1017.37 1017.34 1017.28 1017.21 1017.13 1017.06 1016.98 1016.90 1016.83 1016.74 1016.64 1016.51 1016.35 1016.17 1015.95 1015.70 1015.43 1015.15 1014.88 1014.60 1014.35 1014.12 1013.92 1013.74 1013.58 1013.42
1016.54 1016.55 1016.60 1016.68 1016.77 1016.84 1016.89 1016.92 1016.94 1016.96 1016.98 1017.02 1017.06 1017.11 1017.15 1017.19 1017.21 1017.20 1017.18 1017.13 1017.06 1016.98 1016.90 1016.82 1016.73 1016.64 1016.55 1016.43 1016.30 1016.13 1015.93 1015.71 1015.45 1015.18 1014.90 1014.62 1014.35 1014.10 1013.88 1013.68 1013.51 1013.36 1013.22
1016.15 1016.17 1016.25 1016.34 1016.44 1016.52 1016.58 1016.63 1016.67 1016.70 1016.73 1016.78 1016.83 1016.88 1016.93 1016.97 1016.99 1016.98 1016.95 1016.89 1016.81 1016.72 1016.61 1016.51 1016.40 1016.28 1016.16 1016.03 1015.88 1015.70 1015.51 1015.28 1015.04 1014.78 1014.52 1014.26 1014.02 1013.80 1013.60 1013.42 1013.27 1013.13 1013.00
1015.77 1015.80 1015.87 1015.96 1016.05 1016.14 1016.21 1016.26 1016.32 1016.36 1016.42 1016.48 1016.55 1016.62 1016.68 1016.72 1016.74 1016.72 1016.68 1016.59 1016.49 1016.36 1016.22 1016.07 1015.93 1015.78 1015.63 1015.47 1015.30 1015.13 1014.93 1014.72 1014.51 1014.28 1014.06 1013.84 1013.64 1013.45 1013.29 1013.13 1012.99 1012.86 1012.72
1015.47 1015.48 1015.53 1015.59 1015.66 1015.73 1015.79 1015.85 1015.91 1015.98 1016.05 1016.14 1016.23 1016.32 1016.40 1016.45 1016.46 1016.43 1016.36 1016.25 1016.11 1015.95 1015.76 1015.58 1015.39 1015.21 1015.03 1014.85 1014.68 1014.50 1014.32 1014.13 1013.95 1013.77 1013.59 1013.42 1013.26 1013.11 1012.96 1012.83 1012.69 1012.54 1012.39
1015.31 1015.28 1015.28 1015.29 1015.31 1015.34 1015.37 1015.41 1015.47 1015.55 1015.64 1015.75 1015.87 1015.98 1016.07 1016.12 1016.13 1016.10 1016.01 1015.88 1015.71 1015.51 1015.29 1015.08 1014.86 1014.65 1014.46 1014.28 1014.10 1013.93 1013.77 1013.62 1013.46 1013.32 1013.17 1013.04 1012.91 1012.78 1012.64 1012.51 1012.36 1012.19 1012.00
1015.31 1015.22 1015.15 1015.09 1015.04 1015.00 1014.98 1014.99 1015.03 1015.10 1015.20 1015.32 1015.45 1015.58 1015.68 1015.74 1015.75 1015.70 1015.60 1015.45 1015.26 1015.05 1014.82 1014.59 1014.37 1014.16 1013.97 1013.80 1013.65 1013.50 1013.37 1013.23 1013.11 1012.98 1012.85 1012.73 1012.60 1012.46 1012.31 1012.15 1011.97 1011.77 1011.54
1015.45 1015.30 1015.15 1015.00 1014.87 1014.75 1014.67 1014.62 1014.62 1014.67 1014.76 1014.87 1015.00 1015.12 1015.22 1015.27 1015.27 1015.22 1015.11 1014.95 1014.75 1014.54 1014.32 1014.10 1013.90 1013.72 1013.57 1013.43 1013.31 1013.20 1013.09 1012.97 1012.85 1012.73 1012.59 1012.44 1012.28 1012.11 1011.92 1011.71 1011.49 1011.25 1010.98
1015.70 1015.49 1015.26 1015.03 1014.81 1014.61 1014.45 1014.34 1014.29 1014.29 1014.34 1014.42 1014.52 1014.61 1014.68 1014.71 1014.69 1014.61 1014.48 1014.31 1014.12 1013.92 1013.72 1013.54 1013.38 1013.26 1013.16 1013.07 1013.00 1012.92 1012.84 1012.74 1012.61 1012.46 1012.28 1012.08 1011.86 1011.63 1011.38 1011.12 1010.85 1010.57 1010.29
1015.99 1015.73 1015.45 1015.15 1014.85 1014.58 1014.35 1014.17 1014.05 1013.99 1013.99 1014.01 1014.05 1014.08 1014.09 1014.06 1013.98 1013.86 1013.70 1013.52 1013.32 1013.13 1012.96 1012.83 1012.73 1012.67 1012.63 1012.61 1012.59 1012.55 1012.49 1012.38 1012.23 1012.04 1011.80 1011.53 1011.23 1010.92 1010.60 1010.28 1009.98 1009.68 1009.41
1016.27 1015.99 1015.67 1015.32 1014.98 1014.65 1014.36 1014.12 1013.94 1013.81 1013.72 1013.66 1013.61 1013.55 1013.47 1013.35 1013.18 1012.99 1012.77 1012.54 1012.33 1012.14 1011.99 1011.90 1011.85 1011.85 1011.88 1011.92 1011.94 1011.94 1011.88 1011.76 1011.57 1011.32 1011.01 1010.66 1010.28 1009.88 1009.50 1009.15 1008.83 1008.55 1008.32
Thickness
5758 5756 5751 5748 5746 5743 5741 5738 5735 5734 5732 5730 5726 5723 5721 5720 5719 5717 5715 5713 5711 5709 5707 5705 5704 5703 5701 5700 5699 5696 5694 5693 5693 5689 5687 5690 5693 5693 5692 5692 5691 5690 5689
5751 5748 5745 5742 5740 5736 5734 5732 5730 5728 5726 5724 5722 5719 5717 5715 5714 5712 5710 5708 5707 5705 5702 5699 5698 5698 5697 5695 5694 5692 5689 5689 5689 5683 5678 5677 5679 5683 5688 5686 5685 5685 5685
5742 5741 5738 5735 5734 5731 5730 5729 5724 5722 5720 5718 5716 5714 5711 5709 5707 5705 5704 5703 5702 5700 5698 5696 5694 5693 5693 5690 5689 5687 5685 5682 5683 5682 5675 5669 5668 5672 5678 5679 5680 5679 5678
5739 5735 5733 5731 5729 5727 5725 5722 5719 5716 5714 5713 5710 5707 5704 5701 5701 5700 5699 5699 5698 5696 5693 5691 5690 5689 5688 5686 5684 5683 5681 5679 5676 5676 5675 5672 5670 5665 5665 5670 5673 5674 5674
5733 5730 5729 5726 5724 5722 5720 5717 5714 5711 5710 5708 5705 5702 5700 5699 5698 5696 5694 5694 5693 5691 5689 5688 5686 5685 5683 5681 5679 5678 5677 5675 5672 5670 5669 5667 5666 5665 5659 5658 5662 5665 5668
5728 5725 5724 5722 5719 5717 5714 5712 5708 5706 5705 5703 5701 5698 5695 5694 5692 5690 5689 5689 5688 5687 5685 5684 5683 5681 5679 5677 5675 5674 5673 5671 5669 5667 5665 5662 5660 5658 5656 5654 5655 5657 5660
5721 5719 5717 5715 5713 5711 5709 5708 5704 5700 5700 5699 5696 5694 5692 5690 5688 5687 5685 5684 5683 5682 5681 5680 5679 5677 5676 5674 5672 5669 5668 5666 5664 5662 5661 5659 5658 5657 5655 5652 5651 5652 5654
5716 5714 5712 5710 5708 5707 5706 5704 5700 5698 5696 5694 5692 5690 5688 5686 5685 5684 5683 5681 5680 5679 5679 5677 5675 5673 5672 5671 5668 5666 5664 5662 5660 5659 5656 5655 5655 5654 5652 5649 5646 5643 5645
5711 5709 5707 5706 5705 5703 5702 5700 5697 5694 5692 5690 5688 5686 5683 5682 5681 5680 5679 5678 5676 5676 5675 5673 5671 5669 5668 5666 5664 5661 5660 5658 5656 5653 5652 5650 5651 5650 5649 5647 5644 5638 5634
5707 5706 5704 5702 5701 5700 5699 5697 5695 5691 5689 5687 5684 5682 5680 5679 5678 5677 5675 5674 5672 5672 5670 5669 5667 5665 5663 5661 5659 5657 5655 5653 5651 5649 5647 5645 5645 5644 5643 5641 5639 5636 5631
5701 5701 5701 5700 5698 5696 5695 5692 5690 5688 5685 5683 5681 5679 5677 5676 5675 5673 5671 5670 5669 5668 5666 5665 5663 5661 5659 5657 5655 5653 5651 5648 5646 5644 5642 5641 5640 5638 5637 5635 5633 5631 5627
5699 5699 5698 5695 5692 5691 5690 5689 5687 5685 5683 5682 5679 5676 5674 5672 5671 5669 5668 5667 5666 5665 5663 5661 5659 5657 5655 5653 5651 5649 5647 5644 5642 5640 5638 5636 5635 5632 5630 5628 5626 5625 5623
5696 5695 5693 5690 5688 5687 5685 5684 5683 5682 5681 5679 5676 5673 5670 5669 5667 5666 5666 5665 5664 5662 5660 5658 5655 5653 5652 5649 5647 5645 5644 5641 5639 5637 5634 5632 5630 5626 5624 5622 5620 5619 5618
5691 5689 5687 5685 5684 5683 5682 5681 5680 5679 5678 5676 5673 5669 5667 5666 5665 5664 5663 5662 5661 5659 5657 5654 5652 5650 5648 5645 5643 5641 5639 5637 5635 5633 5631 5628 5625 5622 5619 5616 5614 5612 5610
5687 5685 5682 5681 5680 5679 5678 5677 5677 5676 5675 5673 5670 5667 5666 5665 5664 5662 5661 5660 5658 5656 5653 5651 5649 5647 5644 5641 5638 5636 5635 5633 5630 5628 5626 5624 5621 5618 5614 5611 5608 5605 5603
5684 5682 5679 5677 5676 5675 5674 5674 5673 5674 5673 5670 5668 5666 5664 5663 5662 5660 5658 5656 5654 5652 5649 5646 5644 5642 5639 5635 5634 5631 5630 5628 5625 5623 5621 5619 5616 5613 5609 5606 5603 5600 5597
5682 5679 5676 5674 5673 5672 5672 5670 5671 5671 5670 5668 5666 5664 5662 5660 5659 5658 5655 5652 5649 5646 5644 5642 5640 5637 5633 5631 5629 5626 5624 5623 5621 5618 5615 5613 5613 5608 5604 5601 5598 5596 5594
5679 5677 5675 5673 5672 5672 5671 5670 5669 5668 5666 5665 5663 5662 5659 5657 5656 5654 5650 5648 5645 5642 5640 5638 5636 5633 5629 5626 5624 5622 5620 5619 5617 5615 5612 5608 5604 5601 5597 5596 5594 5592 5590
5678 5676 5676 5674 5672 5670 5669 5668 5666 5665 5663 5661 5659 5658 5657 5654 5652 5649 5647 5644 5641 5639 5638 5636 5633 5630 5626 5622 5620 5617 5617 5615 5613 5610 5608 5605 5600 5595 5591 5590 5588 5586 5584
5678 5676 5676 5673 5670 5669 5668 5665 5663 5662 5660 5659 5658 5656 5655 5652 5649 5646 5643 5641 5638 5636 5636 5633 5631 5628 5624 5619 5616 5613 5612 5610 5608 5606 5604 5600 5595 5590 5586 5584 5582 5579 5579
5676 5675 5673 5670 5669 5668 5666 5662 5660 5659 5659 5658 5657 5655 5653 5650 5647 5644 5641 5638 5636 5634 5633 5630 5628 5626 5622 5617 5613 5609 5607 5605 5604 5602 5599 5595 5590 5586 5582 5578 5576 5574 5573
5674 5672 5670 5668 5668 5667 5664 5660 5658 5659 5658 5657 5654 5652 5650 5648 5646 5642 5639 5636 5633 5631 5629 5627 5625 5622 5619 5615 5611 5607 5603 5602 5599 5597 5594 5591 5586 5582 5578 5575 5573 5571 5568
5670 5669 5667 5665 5665 5665 5662 5658 5658 5657 5656 5654 5651 5649 5647 5645 5643 5640 5636 5634 5631 5629 5627 5625 5622 5619 5617 5613 5609 5605 5601 5598 5595 5593 5589 5586 5582 5578 5576 5573 5570 5567 5564
5667 5666 5664 5662 5661 5662 5661 5659 5658 5656 5653 5650 5648 5647 5645 5643 5641 5639 5636 5632 5629 5626 5624 5622 5620 5617 5614 5609 5605 5602 5599 5594 5591 5588 5586 5582 5579 5576 5573 5571 5568 5565 5562
5664 5664 5661 5659 5659 5660 5659 5658 5657 5655 5652 5649 5647 5645 5644 5642 5639 5636 5632 5629 5625 5622 5620 5617 5615 5613 5609 5604 5599 5595 5594 5590 5587 5583 5582 5580 5577 5574 5571 5569 5566 5564 5561
5661 5660 5659 5658 5658 5658 5657 5657 5656 5653 5650 5647 5644 5644 5643 5641 5639 5635 5631 5626 5622 5618 5616 5613 5610 5608 5604 5601 5597 5594 5591 5587 5583 5580 5579 5577 5574 5571 5568 5564 5562 5560 5557